Вернуться в каталог

STARLINK-1807

АктивенСвязьVLEO
NORAD 46706·PAYLOAD·🇺🇸 United States

Запущен Oct 18, 2020 с Cape Canaveral Space Force Station

Loading…

Ближайшие Пролёты (ближайшие 24 часа)

TLE

СвежийSource: CelesTrak SupGP

Эпоха: Sep 15, 2026, 01:41 UTC

1 46706C 20073AN  26258.07062500  .00010651  00000+0  27753-3 0  2585
2 46706  53.0546  65.3014 0000892  93.2601 277.9707 15.38285063    18

Отслеживайте STARLINK-1807 в реальном времени с AllMySat

Download on the App Store